TimePST,TemperatureF,Dew PointF,Humidity,Sea Level PressureIn,VisibilityMPH,Wind Direction,Wind SpeedMPH,Gust SpeedMPH,PrecipitationIn,Events,Conditions,WindDirDegrees,DateUTC
12:53 AM,45.0,36.0,71,30.39,10.0,ENE,3.5,-,N/A,,Mostly Cloudy,60,2012-11-12 08:53:00
1:53 AM,43.0,35.1,74,30.38,10.0,Calm,Calm,-,N/A,,Mostly Cloudy,0,2012-11-12 09:53:00
2:53 AM,45.0,37.0,74,30.39,10.0,Calm,Calm,-,N/A,,Scattered Clouds,0,2012-11-12 10:53:00
3:53 AM,43.0,36.0,76,30.38,10.0,Calm,Calm,-,N/A,,Scattered Clouds,0,2012-11-12 11:53:00
4:53 AM,41.0,35.1,79,30.38,10.0,Calm,Calm,-,N/A,,Scattered Clouds,0,2012-11-12 12:53:00
5:53 AM,39.0,34.0,82,30.39,10.0,Calm,Calm,-,N/A,,Clear,0,2012-11-12 13:53:00
6:53 AM,41.0,35.1,79,30.39,10.0,ENE,3.5,-,N/A,,Partly Cloudy,70,2012-11-12 14:53:00
7:53 AM,46.0,39.9,79,30.39,10.0,Calm,Calm,-,N/A,,Partly Cloudy,0,2012-11-12 15:53:00
8:53 AM,52.0,39.9,63,30.39,10.0,Calm,Calm,-,N/A,,Clear,0,2012-11-12 16:53:00
9:53 AM,53.1,41.0,64,30.39,10.0,South,4.6,-,N/A,,Clear,190,2012-11-12 17:53:00
10:53 AM,54.0,39.9,59,30.38,10.0,WSW,5.8,-,N/A,,Clear,250,2012-11-12 18:53:00
11:53 AM,57.9,41.0,53,30.35,10.0,West,6.9,-,N/A,,Clear,270,2012-11-12 19:53:00
12:53 PM,61.0,42.1,50,30.32,10.0,West,10.4,-,N/A,,Clear,280,2012-11-12 20:53:00
1:53 PM,62.1,41.0,46,30.30,10.0,WNW,11.5,-,N/A,,Clear,300,2012-11-12 21:53:00
2:53 PM,63.0,43.0,48,30.29,10.0,WNW,12.7,-,N/A,,Partly Cloudy,290,2012-11-12 22:53:00
3:53 PM,64.9,34.0,32,30.28,10.0,NNE,6.9,-,N/A,,Partly Cloudy,30,2012-11-12 23:53:00
4:53 PM,59.0,33.1,38,30.27,10.0,NNE,5.8,-,N/A,,Partly Cloudy,30,2012-11-13 00:53:00
5:53 PM,55.9,33.1,42,30.27,10.0,NNE,4.6,-,N/A,,Partly Cloudy,30,2012-11-13 01:53:00
6:53 PM,57.0,33.1,40,30.28,10.0,ENE,3.5,-,N/A,,Partly Cloudy,70,2012-11-13 02:53:00
7:53 PM,51.1,34.0,52,30.29,10.0,Calm,Calm,-,N/A,,Partly Cloudy,0,2012-11-13 03:53:00
8:53 PM,54.0,36.0,51,30.30,10.0,Calm,Calm,-,N/A,,Partly Cloudy,0,2012-11-13 04:53:00
9:53 PM,48.9,35.1,59,30.30,10.0,ENE,4.6,-,N/A,,Partly Cloudy,70,2012-11-13 05:53:00
10:53 PM,52.0,34.0,50,30.30,10.0,East,6.9,-,N/A,,Partly Cloudy,100,2012-11-13 06:53:00
11:53 PM,48.0,34.0,58,30.29,10.0,NNE,6.9,-,N/A,,Partly Cloudy,30,2012-11-13 07:53:00